owner,sensor,date,latitude,longitude,sea_surface_height_above_sea_level,qcFlag 
WAVCIS,ioos:station:WAVCIS:CSI16:1,2010-12-01T00:00:00Z,29.4012,-89.0355,8.946,11111222 
WAVCIS,ioos:station:WAVCIS:CSI16:1,2010-12-01T01:00:00Z,29.4012,-89.0355,8.92,11111222 
WAVCIS,ioos:station:WAVCIS:CSI16:1,2010-12-01T02:00:00Z,29.4012,-89.0355,8.921,11111222 
WAVCIS,ioos:station:WAVCIS:CSI16:1,2010-12-01T03:00:00Z,29.4012,-89.0355,8.807,11111222 
WAVCIS,ioos:station:WAVCIS:CSI16:1,2010-12-01T04:00:00Z,29.4012,-89.0355,8.682,11111222 
WAVCIS,ioos:station:WAVCIS:CSI16:1,2010-12-01T05:00:00Z,29.4012,-89.0355,8.673,11111222 
WAVCIS,ioos:station:WAVCIS:CSI16:1,2010-12-01T06:00:00Z,29.4012,-89.0355,8.619,11111222 
WAVCIS,ioos:station:WAVCIS:CSI16:1,2010-12-01T07:00:00Z,29.4012,-89.0355,8.569,11111222 
WAVCIS,ioos:station:WAVCIS:CSI16:1,2010-12-01T08:00:00Z,29.4012,-89.0355,8.58,11111222 
WAVCIS,ioos:station:WAVCIS:CSI16:1,2010-12-01T09:00:00Z,29.4012,-89.0355,8.565,11111222 
WAVCIS,ioos:station:WAVCIS:CSI16:1,2010-12-01T10:00:00Z,29.4012,-89.0355,8.574,11111222 
WAVCIS,ioos:station:WAVCIS:CSI16:1,2010-12-01T11:00:00Z,29.4012,-89.0355,8.564,11111222 
WAVCIS,ioos:station:WAVCIS:CSI16:1,2010-12-01T12:00:00Z,29.4012,-89.0355,8.607,11111222 
WAVCIS,ioos:station:WAVCIS:CSI16:1,2010-12-01T13:00:00Z,29.4012,-89.0355,8.659,11111222 
WAVCIS,ioos:station:WAVCIS:CSI16:1,2010-12-01T14:00:00Z,29.4012,-89.0355,8.672,11111222 
WAVCIS,ioos:station:WAVCIS:CSI16:1,2010-12-01T15:00:00Z,29.4012,-89.0355,8.686,11111222 
WAVCIS,ioos:station:WAVCIS:CSI16:1,2010-12-01T16:00:00Z,29.4012,-89.0355,8.723,11111222 
WAVCIS,ioos:station:WAVCIS:CSI16:1,2010-12-01T17:00:00Z,29.4012,-89.0355,8.741,11111222 
WAVCIS,ioos:station:WAVCIS:CSI16:1,2010-12-01T18:00:00Z,29.4012,-89.0355,8.757,11111222 
WAVCIS,ioos:station:WAVCIS:CSI16:1,2010-12-01T19:00:00Z,29.4012,-89.0355,8.791,11111222 
WAVCIS,ioos:station:WAVCIS:CSI16:1,2010-12-01T20:00:00Z,29.4012,-89.0355,8.824,11111222 
WAVCIS,ioos:station:WAVCIS:CSI16:1,2010-12-01T21:00:00Z,29.4012,-89.0355,8.845,11111222 
WAVCIS,ioos:station:WAVCIS:CSI16:1,2010-12-01T22:00:00Z,29.4012,-89.0355,8.843,11111222 
WAVCIS,ioos:station:WAVCIS:CSI16:1,2010-12-01T23:00:00Z,29.4012,-89.0355,8.867,11111222 
WAVCIS,ioos:station:WAVCIS:CSI16:1,2010-12-02T00:00:00Z,29.4012,-89.0355,8.876,11111222 
WAVCIS,ioos:station:WAVCIS:CSI16:1,2010-12-02T01:00:00Z,29.4012,-89.0355,8.865,11111222 
WAVCIS,ioos:station:WAVCIS:CSI16:1,2010-12-02T02:00:00Z,29.4012,-89.0355,8.821,11111222 
WAVCIS,ioos:station:WAVCIS:CSI16:1,2010-12-02T03:00:00Z,29.4012,-89.0355,8.761,11111222 
WAVCIS,ioos:station:WAVCIS:CSI16:1,2010-12-02T04:00:00Z,29.4012,-89.0355,8.684,11111222 
WAVCIS,ioos:station:WAVCIS:CSI16:1,2010-12-02T05:00:00Z,29.4012,-89.0355,8.603,11111222 
WAVCIS,ioos:station:WAVCIS:CSI16:1,2010-12-02T06:00:00Z,29.4012,-89.0355,8.538,11111222 
WAVCIS,ioos:station:WAVCIS:CSI16:1,2010-12-02T07:00:00Z,29.4012,-89.0355,8.482,11111222 
WAVCIS,ioos:station:WAVCIS:CSI16:1,2010-12-02T08:00:00Z,29.4012,-89.0355,8.449,11111222 
WAVCIS,ioos:station:WAVCIS:CSI16:1,2010-12-02T09:00:00Z,29.4012,-89.0355,8.421,11111222 
WAVCIS,ioos:station:WAVCIS:CSI16:1,2010-12-02T10:00:00Z,29.4012,-89.0355,8.404,11111222 
WAVCIS,ioos:station:WAVCIS:CSI16:1,2010-12-02T11:00:00Z,29.4012,-89.0355,8.399,11111222 
WAVCIS,ioos:station:WAVCIS:CSI16:1,2010-12-02T12:00:00Z,29.4012,-89.0355,8.428,11111222 
WAVCIS,ioos:station:WAVCIS:CSI16:1,2010-12-02T13:00:00Z,29.4012,-89.0355,8.477,11111222 
WAVCIS,ioos:station:WAVCIS:CSI16:1,2010-12-02T14:00:00Z,29.4012,-89.0355,8.52,11111222 
WAVCIS,ioos:station:WAVCIS:CSI16:1,2010-12-02T15:00:00Z,29.4012,-89.0355,8.564,11111222 
WAVCIS,ioos:station:WAVCIS:CSI16:1,2010-12-02T16:00:00Z,29.4012,-89.0355,8.596,11111222 
WAVCIS,ioos:station:WAVCIS:CSI16:1,2010-12-02T17:00:00Z,29.4012,-89.0355,8.628,11111222 
WAVCIS,ioos:station:WAVCIS:CSI16:1,2010-12-02T18:00:00Z,29.4012,-89.0355,8.665,11111222 
WAVCIS,ioos:station:WAVCIS:CSI16:1,2010-12-02T19:00:00Z,29.4012,-89.0355,8.718,11111222 
WAVCIS,ioos:station:WAVCIS:CSI16:1,2010-12-02T20:00:00Z,29.4012,-89.0355,8.79,11111222 
WAVCIS,ioos:station:WAVCIS:CSI16:1,2010-12-02T21:00:00Z,29.4012,-89.0355,8.845,11111222 
WAVCIS,ioos:station:WAVCIS:CSI16:1,2010-12-02T22:00:00Z,29.4012,-89.0355,8.872,11111222 
WAVCIS,ioos:station:WAVCIS:CSI16:1,2010-12-02T23:00:00Z,29.4012,-89.0355,8.887,11111222 
WAVCIS,ioos:station:WAVCIS:CSI16:1,2010-12-03T00:00:00Z,29.4012,-89.0355,8.893,11111222 
WAVCIS,ioos:station:WAVCIS:CSI16:1,2010-12-03T01:00:00Z,29.4012,-89.0355,8.884,11111222 
WAVCIS,ioos:station:WAVCIS:CSI16:1,2010-12-03T02:00:00Z,29.4012,-89.0355,8.865,11111222 
WAVCIS,ioos:station:WAVCIS:CSI16:1,2010-12-03T03:00:00Z,29.4012,-89.0355,8.812,11111222 
WAVCIS,ioos:station:WAVCIS:CSI16:1,2010-12-03T04:00:00Z,29.4012,-89.0355,8.738,11111222 
WAVCIS,ioos:station:WAVCIS:CSI16:1,2010-12-03T05:00:00Z,29.4012,-89.0355,8.642,11111222 
WAVCIS,ioos:station:WAVCIS:CSI16:1,2010-12-03T06:00:00Z,29.4012,-89.0355,8.513,11111222 
WAVCIS,ioos:station:WAVCIS:CSI16:1,2010-12-03T07:00:00Z,29.4012,-89.0355,8.421,11111222 
WAVCIS,ioos:station:WAVCIS:CSI16:1,2010-12-03T08:00:00Z,29.4012,-89.0355,8.358,11111222 
WAVCIS,ioos:station:WAVCIS:CSI16:1,2010-12-03T09:00:00Z,29.4012,-89.0355,8.319,11111222 
WAVCIS,ioos:station:WAVCIS:CSI16:1,2010-12-03T10:00:00Z,29.4012,-89.0355,8.279,11111222 
WAVCIS,ioos:station:WAVCIS:CSI16:1,2010-12-03T11:00:00Z,29.4012,-89.0355,8.264,11111222 
WAVCIS,ioos:station:WAVCIS:CSI16:1,2010-12-03T12:00:00Z,29.4012,-89.0355,8.276,11111222 
WAVCIS,ioos:station:WAVCIS:CSI16:1,2010-12-03T13:00:00Z,29.4012,-89.0355,8.326,11111222 
WAVCIS,ioos:station:WAVCIS:CSI16:1,2010-12-03T14:00:00Z,29.4012,-89.0355,8.391,11111222 
WAVCIS,ioos:station:WAVCIS:CSI16:1,2010-12-03T15:00:00Z,29.4012,-89.0355,8.466,11111222 
WAVCIS,ioos:station:WAVCIS:CSI16:1,2010-12-03T16:00:00Z,29.4012,-89.0355,8.545,11111222 
WAVCIS,ioos:station:WAVCIS:CSI16:1,2010-12-03T17:00:00Z,29.4012,-89.0355,8.601,11111222 
WAVCIS,ioos:station:WAVCIS:CSI16:1,2010-12-03T18:00:00Z,29.4012,-89.0355,8.644,11111222 
WAVCIS,ioos:station:WAVCIS:CSI16:1,2010-12-03T19:00:00Z,29.4012,-89.0355,8.702,11111222 
WAVCIS,ioos:station:WAVCIS:CSI16:1,2010-12-03T20:00:00Z,29.4012,-89.0355,8.756,11111222 
WAVCIS,ioos:station:WAVCIS:CSI16:1,2010-12-03T21:00:00Z,29.4012,-89.0355,8.816,11111222 
WAVCIS,ioos:station:WAVCIS:CSI16:1,2010-12-03T22:00:00Z,29.4012,-89.0355,8.864,11111222 
WAVCIS,ioos:station:WAVCIS:CSI16:1,2010-12-03T23:00:00Z,29.4012,-89.0355,8.894,11111222 
WAVCIS,ioos:station:WAVCIS:CSI16:1,2010-12-04T00:00:00Z,29.4012,-89.0355,8.916,11111222 
WAVCIS,ioos:station:WAVCIS:CSI16:1,2010-12-04T01:00:00Z,29.4012,-89.0355,8.923,11111222 
WAVCIS,ioos:station:WAVCIS:CSI16:1,2010-12-04T02:00:00Z,29.4012,-89.0355,8.91,11111222 
WAVCIS,ioos:station:WAVCIS:CSI16:1,2010-12-04T03:00:00Z,29.4012,-89.0355,8.872,11111222 
WAVCIS,ioos:station:WAVCIS:CSI16:1,2010-12-04T04:00:00Z,29.4012,-89.0355,8.813,11111222 
WAVCIS,ioos:station:WAVCIS:CSI16:1,2010-12-04T05:00:00Z,29.4012,-89.0355,8.73,11111222 
WAVCIS,ioos:station:WAVCIS:CSI16:1,2010-12-04T06:00:00Z,29.4012,-89.0355,8.623,11111222 
WAVCIS,ioos:station:WAVCIS:CSI16:1,2010-12-04T07:00:00Z,29.4012,-89.0355,8.512,11111222 
WAVCIS,ioos:station:WAVCIS:CSI16:1,2010-12-04T08:00:00Z,29.4012,-89.0355,8.416,11111222 
WAVCIS,ioos:station:WAVCIS:CSI16:1,2010-12-04T09:00:00Z,29.4012,-89.0355,8.331,11111222 
WAVCIS,ioos:station:WAVCIS:CSI16:1,2010-12-04T10:00:00Z,29.4012,-89.0355,8.28,11111222 
WAVCIS,ioos:station:WAVCIS:CSI16:1,2010-12-04T11:00:00Z,29.4012,-89.0355,8.251,11111222 
WAVCIS,ioos:station:WAVCIS:CSI16:1,2010-12-04T12:00:00Z,29.4012,-89.0355,8.253,11111222 
WAVCIS,ioos:station:WAVCIS:CSI16:1,2010-12-04T13:00:00Z,29.4012,-89.0355,8.283,11111222 
WAVCIS,ioos:station:WAVCIS:CSI16:1,2010-12-04T14:00:00Z,29.4012,-89.0355,8.34,11111222 
WAVCIS,ioos:station:WAVCIS:CSI16:1,2010-12-04T15:00:00Z,29.4012,-89.0355,8.406,11111222 
WAVCIS,ioos:station:WAVCIS:CSI16:1,2010-12-04T16:00:00Z,29.4012,-89.0355,8.49,11111222 
WAVCIS,ioos:station:WAVCIS:CSI16:1,2010-12-04T17:00:00Z,29.4012,-89.0355,8.546,11111222 
WAVCIS,ioos:station:WAVCIS:CSI16:1,2010-12-04T18:00:00Z,29.4012,-89.0355,8.61,11111222 
WAVCIS,ioos:station:WAVCIS:CSI16:1,2010-12-04T19:00:00Z,29.4012,-89.0355,8.666,11111222 
WAVCIS,ioos:station:WAVCIS:CSI16:1,2010-12-04T20:00:00Z,29.4012,-89.0355,8.719,11111222 
WAVCIS,ioos:station:WAVCIS:CSI16:1,2010-12-04T21:00:00Z,29.4012,-89.0355,8.788,11111222 
WAVCIS,ioos:station:WAVCIS:CSI16:1,2010-12-04T22:00:00Z,29.4012,-89.0355,8.844,11111222 
WAVCIS,ioos:station:WAVCIS:CSI16:1,2010-12-04T23:00:00Z,29.4012,-89.0355,8.894,11111222 
WAVCIS,ioos:station:WAVCIS:CSI16:1,2010-12-05T00:00:00Z,29.4012,-89.0355,8.92,11111222 
WAVCIS,ioos:station:WAVCIS:CSI16:1,2010-12-05T01:00:00Z,29.4012,-89.0355,8.94,11111222 
WAVCIS,ioos:station:WAVCIS:CSI16:1,2010-12-05T02:00:00Z,29.4012,-89.0355,8.951,11111222 
WAVCIS,ioos:station:WAVCIS:CSI16:1,2010-12-05T03:00:00Z,29.4012,-89.0355,8.916,11111222 
WAVCIS,ioos:station:WAVCIS:CSI16:1,2010-12-05T04:00:00Z,29.4012,-89.0355,8.845,11111222 
WAVCIS,ioos:station:WAVCIS:CSI16:1,2010-12-05T05:00:00Z,29.4012,-89.0355,8.757,11111222 
WAVCIS,ioos:station:WAVCIS:CSI16:1,2010-12-05T06:00:00Z,29.4012,-89.0355,8.659,11111222 
WAVCIS,ioos:station:WAVCIS:CSI16:1,2010-12-05T07:00:00Z,29.4012,-89.0355,8.522,11111222 
WAVCIS,ioos:station:WAVCIS:CSI16:1,2010-12-05T08:00:00Z,29.4012,-89.0355,8.41,11111222 
WAVCIS,ioos:station:WAVCIS:CSI16:1,2010-12-05T09:00:00Z,29.4012,-89.0355,8.335,11111222 
WAVCIS,ioos:station:WAVCIS:CSI16:1,2010-12-05T10:00:00Z,29.4012,-89.0355,8.248,11111222 
WAVCIS,ioos:station:WAVCIS:CSI16:1,2010-12-05T11:00:00Z,29.4012,-89.0355,8.204,11111222 
WAVCIS,ioos:station:WAVCIS:CSI16:1,2010-12-05T12:00:00Z,29.4012,-89.0355,8.228,11111222 
WAVCIS,ioos:station:WAVCIS:CSI16:1,2010-12-05T13:00:00Z,29.4012,-89.0355,8.248,11111222 
WAVCIS,ioos:station:WAVCIS:CSI16:1,2010-12-05T14:00:00Z,29.4012,-89.0355,8.293,11111222 
WAVCIS,ioos:station:WAVCIS:CSI16:1,2010-12-05T15:00:00Z,29.4012,-89.0355,8.352,11111222 
WAVCIS,ioos:station:WAVCIS:CSI16:1,2010-12-05T16:00:00Z,29.4012,-89.0355,8.409,11111222 
WAVCIS,ioos:station:WAVCIS:CSI16:1,2010-12-05T17:00:00Z,29.4012,-89.0355,8.479,11111222 
WAVCIS,ioos:station:WAVCIS:CSI16:1,2010-12-05T18:00:00Z,29.4012,-89.0355,8.553,11111222 
WAVCIS,ioos:station:WAVCIS:CSI16:1,2010-12-05T19:00:00Z,29.4012,-89.0355,8.635,11111222 
WAVCIS,ioos:station:WAVCIS:CSI16:1,2010-12-05T20:00:00Z,29.4012,-89.0355,8.71,11111222 
WAVCIS,ioos:station:WAVCIS:CSI16:1,2010-12-05T21:00:00Z,29.4012,-89.0355,8.806,11111222 
WAVCIS,ioos:station:WAVCIS:CSI16:1,2010-12-05T22:00:00Z,29.4012,-89.0355,8.884,11111222 
WAVCIS,ioos:station:WAVCIS:CSI16:1,2010-12-05T23:00:00Z,29.4012,-89.0355,8.958,11111222 
WAVCIS,ioos:station:WAVCIS:CSI16:1,2010-12-06T00:00:00Z,29.4012,-89.0355,9.04,11111222 
WAVCIS,ioos:station:WAVCIS:CSI16:1,2010-12-06T01:00:00Z,29.4012,-89.0355,9.075,11111222 
WAVCIS,ioos:station:WAVCIS:CSI16:1,2010-12-06T02:00:00Z,29.4012,-89.0355,9.087,11111222 
WAVCIS,ioos:station:WAVCIS:CSI16:1,2010-12-06T03:00:00Z,29.4012,-89.0355,9.077,11111222 
WAVCIS,ioos:station:WAVCIS:CSI16:1,2010-12-06T04:00:00Z,29.4012,-89.0355,9.038,11111222 
WAVCIS,ioos:station:WAVCIS:CSI16:1,2010-12-06T05:00:00Z,29.4012,-89.0355,8.973,11111222 
WAVCIS,ioos:station:WAVCIS:CSI16:1,2010-12-06T06:00:00Z,29.4012,-89.0355,8.87,11111222 
WAVCIS,ioos:station:WAVCIS:CSI16:1,2010-12-06T07:00:00Z,29.4012,-89.0355,8.732,11111222 
WAVCIS,ioos:station:WAVCIS:CSI16:1,2010-12-06T08:00:00Z,29.4012,-89.0355,8.609,11111222 
WAVCIS,ioos:station:WAVCIS:CSI16:1,2010-12-06T09:00:00Z,29.4012,-89.0355,8.514,11111222 
WAVCIS,ioos:station:WAVCIS:CSI16:1,2010-12-06T10:00:00Z,29.4012,-89.0355,8.422,11111222 
WAVCIS,ioos:station:WAVCIS:CSI16:1,2010-12-06T11:00:00Z,29.4012,-89.0355,8.375,11111222 
WAVCIS,ioos:station:WAVCIS:CSI16:1,2010-12-06T12:00:00Z,29.4012,-89.0355,8.347,11111222 
WAVCIS,ioos:station:WAVCIS:CSI16:1,2010-12-06T13:00:00Z,29.4012,-89.0355,8.343,11111222 
WAVCIS,ioos:station:WAVCIS:CSI16:1,2010-12-06T14:00:00Z,29.4012,-89.0355,8.352,11111222 
WAVCIS,ioos:station:WAVCIS:CSI16:1,2010-12-06T15:00:00Z,29.4012,-89.0355,8.39,11111222 
WAVCIS,ioos:station:WAVCIS:CSI16:1,2010-12-06T16:00:00Z,29.4012,-89.0355,8.412,11111222 
WAVCIS,ioos:station:WAVCIS:CSI16:1,2010-12-06T17:00:00Z,29.4012,-89.0355,8.438,11111222 
WAVCIS,ioos:station:WAVCIS:CSI16:1,2010-12-06T18:00:00Z,29.4012,-89.0355,8.507,11111222 
WAVCIS,ioos:station:WAVCIS:CSI16:1,2010-12-06T19:00:00Z,29.4012,-89.0355,8.539,11111222 
WAVCIS,ioos:station:WAVCIS:CSI16:1,2010-12-06T20:00:00Z,29.4012,-89.0355,8.606,11111222 
WAVCIS,ioos:station:WAVCIS:CSI16:1,2010-12-06T21:00:00Z,29.4012,-89.0355,8.645,11111222 
WAVCIS,ioos:station:WAVCIS:CSI16:1,2010-12-06T22:00:00Z,29.4012,-89.0355,8.709,11111222 
WAVCIS,ioos:station:WAVCIS:CSI16:1,2010-12-06T23:00:00Z,29.4012,-89.0355,8.786,11111222 
WAVCIS,ioos:station:WAVCIS:CSI16:1,2010-12-07T00:00:00Z,29.4012,-89.0355,8.858,11111222 
WAVCIS,ioos:station:WAVCIS:CSI16:1,2010-12-07T01:00:00Z,29.4012,-89.0355,8.915,11111222 
WAVCIS,ioos:station:WAVCIS:CSI16:1,2010-12-07T02:00:00Z,29.4012,-89.0355,8.932,11111222 
WAVCIS,ioos:station:WAVCIS:CSI16:1,2010-12-07T03:00:00Z,29.4012,-89.0355,8.924,11111222 
WAVCIS,ioos:station:WAVCIS:CSI16:1,2010-12-07T04:00:00Z,29.4012,-89.0355,8.912,11111222 
WAVCIS,ioos:station:WAVCIS:CSI16:1,2010-12-07T05:00:00Z,29.4012,-89.0355,8.867,11111222 
WAVCIS,ioos:station:WAVCIS:CSI16:1,2010-12-07T06:00:00Z,29.4012,-89.0355,8.768,11111222 
WAVCIS,ioos:station:WAVCIS:CSI16:1,2010-12-07T07:00:00Z,29.4012,-89.0355,8.672,11111222 
WAVCIS,ioos:station:WAVCIS:CSI16:1,2010-12-07T08:00:00Z,29.4012,-89.0355,8.574,11111222 
WAVCIS,ioos:station:WAVCIS:CSI16:1,2010-12-07T09:00:00Z,29.4012,-89.0355,8.472,11111222 
WAVCIS,ioos:station:WAVCIS:CSI16:1,2010-12-07T10:00:00Z,29.4012,-89.0355,8.407,11111222 
WAVCIS,ioos:station:WAVCIS:CSI16:1,2010-12-07T11:00:00Z,29.4012,-89.0355,8.357,11111222 
WAVCIS,ioos:station:WAVCIS:CSI16:1,2010-12-07T12:00:00Z,29.4012,-89.0355,8.324,11111222 
WAVCIS,ioos:station:WAVCIS:CSI16:1,2010-12-07T13:00:00Z,29.4012,-89.0355,8.312,11111222 
WAVCIS,ioos:station:WAVCIS:CSI16:1,2010-12-07T14:00:00Z,29.4012,-89.0355,8.316,11111222 
WAVCIS,ioos:station:WAVCIS:CSI16:1,2010-12-07T15:00:00Z,29.4012,-89.0355,8.342,11111222 
WAVCIS,ioos:station:WAVCIS:CSI16:1,2010-12-07T16:00:00Z,29.4012,-89.0355,8.373,11111222 
WAVCIS,ioos:station:WAVCIS:CSI16:1,2010-12-07T17:00:00Z,29.4012,-89.0355,8.408,11111222 
WAVCIS,ioos:station:WAVCIS:CSI16:1,2010-12-07T18:00:00Z,29.4012,-89.0355,8.448,11111222 
WAVCIS,ioos:station:WAVCIS:CSI16:1,2010-12-07T19:00:00Z,29.4012,-89.0355,8.498,11111222 
WAVCIS,ioos:station:WAVCIS:CSI16:1,2010-12-07T20:00:00Z,29.4012,-89.0355,8.541,11111222 
WAVCIS,ioos:station:WAVCIS:CSI16:1,2010-12-07T21:00:00Z,29.4012,-89.0355,8.605,11111222 
WAVCIS,ioos:station:WAVCIS:CSI16:1,2010-12-07T22:00:00Z,29.4012,-89.0355,8.659,11111222 
WAVCIS,ioos:station:WAVCIS:CSI16:1,2010-12-07T23:00:00Z,29.4012,-89.0355,8.722,11111222 
WAVCIS,ioos:station:WAVCIS:CSI16:1,2010-12-08T00:00:00Z,29.4012,-89.0355,8.779,11111222 
WAVCIS,ioos:station:WAVCIS:CSI16:1,2010-12-08T01:00:00Z,29.4012,-89.0355,8.835,11111222 
WAVCIS,ioos:station:WAVCIS:CSI16:1,2010-12-08T02:00:00Z,29.4012,-89.0355,8.886,11111222 
WAVCIS,ioos:station:WAVCIS:CSI16:1,2010-12-08T03:00:00Z,29.4012,-89.0355,8.9,11111222 
WAVCIS,ioos:station:WAVCIS:CSI16:1,2010-12-08T04:00:00Z,29.4012,-89.0355,8.901,11111222 
WAVCIS,ioos:station:WAVCIS:CSI16:1,2010-12-08T05:00:00Z,29.4012,-89.0355,8.893,11111222 
WAVCIS,ioos:station:WAVCIS:CSI16:1,2010-12-08T06:00:00Z,29.4012,-89.0355,8.84,11111222 
WAVCIS,ioos:station:WAVCIS:CSI16:1,2010-12-08T07:00:00Z,29.4012,-89.0355,8.763,11111222 
WAVCIS,ioos:station:WAVCIS:CSI16:1,2010-12-08T08:00:00Z,29.4012,-89.0355,8.667,11111222 
WAVCIS,ioos:station:WAVCIS:CSI16:1,2010-12-08T09:00:00Z,29.4012,-89.0355,8.561,11111222 
WAVCIS,ioos:station:WAVCIS:CSI16:1,2010-12-08T10:00:00Z,29.4012,-89.0355,8.479,11111222 
WAVCIS,ioos:station:WAVCIS:CSI16:1,2010-12-08T11:00:00Z,29.4012,-89.0355,8.387,11111222 
WAVCIS,ioos:station:WAVCIS:CSI16:1,2010-12-08T12:00:00Z,29.4012,-89.0355,8.433,11111222 
WAVCIS,ioos:station:WAVCIS:CSI16:1,2010-12-08T13:00:00Z,29.4012,-89.0355,8.383,11111222 
WAVCIS,ioos:station:WAVCIS:CSI16:1,2010-12-08T14:00:00Z,29.4012,-89.0355,8.35,11111222 
WAVCIS,ioos:station:WAVCIS:CSI16:1,2010-12-08T15:00:00Z,29.4012,-89.0355,8.365,11111222 
WAVCIS,ioos:station:WAVCIS:CSI16:1,2010-12-08T16:00:00Z,29.4012,-89.0355,8.42,11111222 
WAVCIS,ioos:station:WAVCIS:CSI16:1,2010-12-08T17:00:00Z,29.4012,-89.0355,8.435,11111222 
WAVCIS,ioos:station:WAVCIS:CSI16:1,2010-12-08T18:00:00Z,29.4012,-89.0355,8.487,11111222 
WAVCIS,ioos:station:WAVCIS:CSI16:1,2010-12-08T19:00:00Z,29.4012,-89.0355,8.544,11111222 
WAVCIS,ioos:station:WAVCIS:CSI16:1,2010-12-08T20:00:00Z,29.4012,-89.0355,8.601,11111222 
WAVCIS,ioos:station:WAVCIS:CSI16:1,2010-12-08T21:00:00Z,29.4012,-89.0355,8.674,11111222 
WAVCIS,ioos:station:WAVCIS:CSI16:1,2010-12-08T22:00:00Z,29.4012,-89.0355,8.731,11111222 
WAVCIS,ioos:station:WAVCIS:CSI16:1,2010-12-08T23:00:00Z,29.4012,-89.0355,8.761,11111222 
WAVCIS,ioos:station:WAVCIS:CSI16:1,2010-12-09T00:00:00Z,29.4012,-89.0355,8.83,11111222 
WAVCIS,ioos:station:WAVCIS:CSI16:1,2010-12-09T01:00:00Z,29.4012,-89.0355,8.929,11111222 
WAVCIS,ioos:station:WAVCIS:CSI16:1,2010-12-09T02:00:00Z,29.4012,-89.0355,8.986,11111222 
WAVCIS,ioos:station:WAVCIS:CSI16:1,2010-12-09T03:00:00Z,29.4012,-89.0355,9.023,11111222 
WAVCIS,ioos:station:WAVCIS:CSI16:1,2010-12-09T04:00:00Z,29.4012,-89.0355,9.003,11111222 
WAVCIS,ioos:station:WAVCIS:CSI16:1,2010-12-09T05:00:00Z,29.4012,-89.0355,9.021,11111222 
WAVCIS,ioos:station:WAVCIS:CSI16:1,2010-12-09T06:00:00Z,29.4012,-89.0355,8.978,11111222 
WAVCIS,ioos:station:WAVCIS:CSI16:1,2010-12-09T07:00:00Z,29.4012,-89.0355,8.91,11111222 
WAVCIS,ioos:station:WAVCIS:CSI16:1,2010-12-09T08:00:00Z,29.4012,-89.0355,8.832,11111222 
WAVCIS,ioos:station:WAVCIS:CSI16:1,2010-12-09T09:00:00Z,29.4012,-89.0355,8.776,11111222 
WAVCIS,ioos:station:WAVCIS:CSI16:1,2010-12-09T10:00:00Z,29.4012,-89.0355,8.706,11111222 
WAVCIS,ioos:station:WAVCIS:CSI16:1,2010-12-09T11:00:00Z,29.4012,-89.0355,8.635,11111222 
WAVCIS,ioos:station:WAVCIS:CSI16:1,2010-12-09T12:00:00Z,29.4012,-89.0355,8.591,11111222 
WAVCIS,ioos:station:WAVCIS:CSI16:1,2010-12-09T13:00:00Z,29.4012,-89.0355,8.572,11111222 
WAVCIS,ioos:station:WAVCIS:CSI16:1,2010-12-09T14:00:00Z,29.4012,-89.0355,8.558,11111222 
WAVCIS,ioos:station:WAVCIS:CSI16:1,2010-12-09T15:00:00Z,29.4012,-89.0355,8.548,11111222 
WAVCIS,ioos:station:WAVCIS:CSI16:1,2010-12-09T16:00:00Z,29.4012,-89.0355,8.55,11111222 
WAVCIS,ioos:station:WAVCIS:CSI16:1,2010-12-09T17:00:00Z,29.4012,-89.0355,8.55,11111222 
WAVCIS,ioos:station:WAVCIS:CSI16:1,2010-12-09T18:00:00Z,29.4012,-89.0355,8.57,11111222 
WAVCIS,ioos:station:WAVCIS:CSI16:1,2010-12-09T19:00:00Z,29.4012,-89.0355,8.59,11111222 
WAVCIS,ioos:station:WAVCIS:CSI16:1,2010-12-09T20:00:00Z,29.4012,-89.0355,8.62,11111222 
WAVCIS,ioos:station:WAVCIS:CSI16:1,2010-12-09T21:00:00Z,29.4012,-89.0355,8.653,11111222 
WAVCIS,ioos:station:WAVCIS:CSI16:1,2010-12-09T22:00:00Z,29.4012,-89.0355,8.693,11111222 
WAVCIS,ioos:station:WAVCIS:CSI16:1,2010-12-09T23:00:00Z,29.4012,-89.0355,8.728,11111222 
WAVCIS,ioos:station:WAVCIS:CSI16:1,2010-12-10T00:00:00Z,29.4012,-89.0355,8.763,11111222 
WAVCIS,ioos:station:WAVCIS:CSI16:1,2010-12-10T01:00:00Z,29.4012,-89.0355,8.821,11111222 
WAVCIS,ioos:station:WAVCIS:CSI16:1,2010-12-10T02:00:00Z,29.4012,-89.0355,8.859,11111222 
WAVCIS,ioos:station:WAVCIS:CSI16:1,2010-12-10T03:00:00Z,29.4012,-89.0355,8.891,11111222 
WAVCIS,ioos:station:WAVCIS:CSI16:1,2010-12-10T04:00:00Z,29.4012,-89.0355,8.893,11111222 
WAVCIS,ioos:station:WAVCIS:CSI16:1,2010-12-10T05:00:00Z,29.4012,-89.0355,8.887,11111222 
WAVCIS,ioos:station:WAVCIS:CSI16:1,2010-12-10T06:00:00Z,29.4012,-89.0355,8.872,11111222 
WAVCIS,ioos:station:WAVCIS:CSI16:1,2010-12-10T07:00:00Z,29.4012,-89.0355,8.849,11111222 
WAVCIS,ioos:station:WAVCIS:CSI16:1,2010-12-10T08:00:00Z,29.4012,-89.0355,8.808,11111222 
WAVCIS,ioos:station:WAVCIS:CSI16:1,2010-12-10T09:00:00Z,29.4012,-89.0355,8.743,11111222 
WAVCIS,ioos:station:WAVCIS:CSI16:1,2010-12-10T10:00:00Z,29.4012,-89.0355,8.682,11111222 
WAVCIS,ioos:station:WAVCIS:CSI16:1,2010-12-10T11:00:00Z,29.4012,-89.0355,8.623,11111222 
WAVCIS,ioos:station:WAVCIS:CSI16:1,2010-12-10T12:00:00Z,29.4012,-89.0355,8.583,11111222 
WAVCIS,ioos:station:WAVCIS:CSI16:1,2010-12-10T13:00:00Z,29.4012,-89.0355,8.554,11111222 
WAVCIS,ioos:station:WAVCIS:CSI16:1,2010-12-10T14:00:00Z,29.4012,-89.0355,8.544,11111222 
WAVCIS,ioos:station:WAVCIS:CSI16:1,2010-12-10T15:00:00Z,29.4012,-89.0355,8.548,11111222 
WAVCIS,ioos:station:WAVCIS:CSI16:1,2010-12-10T16:00:00Z,29.4012,-89.0355,8.547,11111222 
WAVCIS,ioos:station:WAVCIS:CSI16:1,2010-12-10T17:00:00Z,29.4012,-89.0355,8.558,11111222 
WAVCIS,ioos:station:WAVCIS:CSI16:1,2010-12-10T18:00:00Z,29.4012,-89.0355,8.58,11111222 
WAVCIS,ioos:station:WAVCIS:CSI16:1,2010-12-10T19:00:00Z,29.4012,-89.0355,8.601,11111222 
WAVCIS,ioos:station:WAVCIS:CSI16:1,2010-12-10T20:00:00Z,29.4012,-89.0355,8.645,11111222 
WAVCIS,ioos:station:WAVCIS:CSI16:1,2010-12-10T21:00:00Z,29.4012,-89.0355,8.688,11111222 
WAVCIS,ioos:station:WAVCIS:CSI16:1,2010-12-10T22:00:00Z,29.4012,-89.0355,8.71,11111222 
WAVCIS,ioos:station:WAVCIS:CSI16:1,2010-12-10T23:00:00Z,29.4012,-89.0355,8.748,11111222 
WAVCIS,ioos:station:WAVCIS:CSI16:1,2010-12-11T00:00:00Z,29.4012,-89.0355,8.793,11111222 
WAVCIS,ioos:station:WAVCIS:CSI16:1,2010-12-11T01:00:00Z,29.4012,-89.0355,8.82,11111222 
WAVCIS,ioos:station:WAVCIS:CSI16:1,2010-12-11T02:00:00Z,29.4012,-89.0355,8.859,11111222 
WAVCIS,ioos:station:WAVCIS:CSI16:1,2010-12-11T03:00:00Z,29.4012,-89.0355,8.882,11111222 
WAVCIS,ioos:station:WAVCIS:CSI16:1,2010-12-11T04:00:00Z,29.4012,-89.0355,8.886,11111222 
WAVCIS,ioos:station:WAVCIS:CSI16:1,2010-12-11T05:00:00Z,29.4012,-89.0355,8.875,11111222 
WAVCIS,ioos:station:WAVCIS:CSI16:1,2010-12-11T06:00:00Z,29.4012,-89.0355,8.866,11111222 
WAVCIS,ioos:station:WAVCIS:CSI16:1,2010-12-11T07:00:00Z,29.4012,-89.0355,8.835,11111222 
WAVCIS,ioos:station:WAVCIS:CSI16:1,2010-12-11T08:00:00Z,29.4012,-89.0355,8.801,11111222 
WAVCIS,ioos:station:WAVCIS:CSI16:1,2010-12-11T09:00:00Z,29.4012,-89.0355,8.77,11111222 
WAVCIS,ioos:station:WAVCIS:CSI16:1,2010-12-11T10:00:00Z,29.4012,-89.0355,8.719,11111222 
WAVCIS,ioos:station:WAVCIS:CSI16:1,2010-12-11T11:00:00Z,29.4012,-89.0355,8.672,11111222 
WAVCIS,ioos:station:WAVCIS:CSI16:1,2010-12-11T12:00:00Z,29.4012,-89.0355,8.626,11111222 
WAVCIS,ioos:station:WAVCIS:CSI16:1,2010-12-11T13:00:00Z,29.4012,-89.0355,8.592,11111222 
WAVCIS,ioos:station:WAVCIS:CSI16:1,2010-12-11T14:00:00Z,29.4012,-89.0355,8.564,11111222 
WAVCIS,ioos:station:WAVCIS:CSI16:1,2010-12-11T15:00:00Z,29.4012,-89.0355,8.566,11111222 
WAVCIS,ioos:station:WAVCIS:CSI16:1,2010-12-11T16:00:00Z,29.4012,-89.0355,8.563,11111222 
WAVCIS,ioos:station:WAVCIS:CSI16:1,2010-12-11T17:00:00Z,29.4012,-89.0355,8.564,11111222 
WAVCIS,ioos:station:WAVCIS:CSI16:1,2010-12-11T18:00:00Z,29.4012,-89.0355,8.562,11111222 
WAVCIS,ioos:station:WAVCIS:CSI16:1,2010-12-11T19:00:00Z,29.4012,-89.0355,8.587,11111222 
WAVCIS,ioos:station:WAVCIS:CSI16:1,2010-12-11T20:00:00Z,29.4012,-89.0355,8.615,11111222 
WAVCIS,ioos:station:WAVCIS:CSI16:1,2010-12-11T21:00:00Z,29.4012,-89.0355,8.647,11111222 
WAVCIS,ioos:station:WAVCIS:CSI16:1,2010-12-11T22:00:00Z,29.4012,-89.0355,8.669,11111222 
WAVCIS,ioos:station:WAVCIS:CSI16:1,2010-12-11T23:00:00Z,29.4012,-89.0355,8.66,11111222 
WAVCIS,ioos:station:WAVCIS:CSI16:1,2010-12-12T00:00:00Z,29.4012,-89.0355,8.681,11111222 
WAVCIS,ioos:station:WAVCIS:CSI16:1,2010-12-12T01:00:00Z,29.4012,-89.0355,8.701,11111222 
WAVCIS,ioos:station:WAVCIS:CSI16:1,2010-12-12T02:00:00Z,29.4012,-89.0355,8.714,11111222 
WAVCIS,ioos:station:WAVCIS:CSI16:1,2010-12-12T03:00:00Z,29.4012,-89.0355,8.727,11111222 
WAVCIS,ioos:station:WAVCIS:CSI16:1,2010-12-12T04:00:00Z,29.4012,-89.0355,8.751,11111222 